Location: Seattle
(47.6064°N, 122.3308°W)
Time: 05:01:10
(UTC-08:00)

S-56A Canister/Altair - Pass Details

Date: 02 December 2020
Orbit: 633 x 2499 km, 38.9° (Epoch: 23 January)

Event Time Altitude Azimuth Distance (km) Brightness Sun altitude
Rises 15:20:42 0° 182° (S) 6,144 12.9 6.9°
Reaches altitude 10° 15:28:07 10° 160° (SSE) 4,971 12.0 6.0°
Maximum altitude 15:33:30 13° 137° (SE) 4,486 11.5 5.3°
Drops below altitude 10° 15:38:25 10° 113° (ESE) 4,489 11.2 4.7°
Sets 15:44:14 0° 90° (E) 5,091 11.2 3.9°
